Wind_Speed
20 21 21 21 21 21 21 21 21 22 22 22 22 21 21 21 22 21 21 20 20 21 21 22 22 21 23 23 24 25 29 31 34 32 19 7 0 3 1 3 3 1 2 4 6 7 9 10 12 14 10 3 1 1 2 4 2 1 2 5 8 9 7 4 4 3 1 1 4 6 9 11 9 7 4 4 6 9 7 7 6 8 5 3 5 12 26 31
21 21 21 21 21 21 21 21 22 22 22 22 22 22 22 21 21 21 21 21 21 21 20 21 21 20 22 23 24 24 28 30 28 24 14 1 7 5 3 4 2 1 2 4 5 5 5 5 8 9 6 2 2 0 1 2 3 4 2 4 9 7 3 3 3 4 3 3 5 5 7 9 10 9 6 6 10 9 8 6 6 11 5 6 10 19 27 30
21 21 22 22 22 22 22 22 22 22 22 22 22 22 22 22 21 21 21 21 21 21 20 21 21 20 20 22 23 23 27 26 17 9 1 7 7 6 6 5 2 1 3 4 3 4 3 4 5 4 3 2 2 0 1 1 2 3 3 6 8 4 6 7 5 6 5 5 7 7 6 5 7 6 5 10 14 10 11 10 8 14 9 7 10 17 22 25
22 22 22 22 22 22 23 23 23 22 22 23 22 22 22 22 22 22 21 21 21 21 20 19 20 19 18 20 21 23 23 14 5 3 4 6 6 6 5 6 4 1 3 4 4 4 3 4 3 1 2 1 3 1 1 3 2 2 4 8 6 3 7 8 7 7 8 7 7 8 7 7 6 4 4 10 12 10 11 13 14 18 12 11 12 13 17 18
22 22 23 23 23 23 23 23 23 22 23 23 23 22 22 22 21 22 21 20 20 20 20 19 19 18 17 19 20 21 15 4 1 1 4 3 2 1 3 5 4 2 2 3 4 3 3 3 3 3 2 1 2 2 2 3 2 3 6 7 6 5 7 8 8 8 10 10 9 9 8 6 5 5 5 8 12 11 9 11 15 18 13 14 15 14 14 15
22 23 24 24 24 24 24 23 24 23 23 23 23 22 22 22 22 21 21 21 20 19 19 18 18 17 15 18 19 14 5 1 4 2 0 2 2 3 5 4 3 2 2 3 2 2 2 3 4 2 1 1 1 1 4 4 1 4 7 6 6 6 6 8 9 9 10 12 11 9 7 7 8 8 6 5 10 9 6 5 9 13 8 13 15 14 15 15
23 23 24 24 24 24 24 24 24 24 23 23 23 23 23 23 23 22 21 21 20 19 18 17 17 15 15 18 15 5 1 7 12 5 1 1 1 3 4 3 4 3 3 1 2 1 1 3 2 0 2 1 2 2 5 5 2 5 6 6 7 7 8 9 10 8 8 11 12 10 9 10 11 9 6 7 10 8 9 3 3 7 5 12 14 14 16 16
24 24 24 24 24 24 24 24 24 24 24 23 23 23 23 23 22 22 21 20 19 19 17 15 14 13 14 14 8 4 4 9 9 1 2 3 2 6 6 2 3 3 3 1 1 1 0 1 1 1 2 2 2 2 4 5 4 6 5 5 6 7 8 9 10 7 8 10 9 11 13 13 12 7 8 15 15 10 10 8 2 2 5 12 15 16 16 16
24 25 25 25 25 25 24 24 25 24 24 24 24 24 24 23 23 22 21 20 19 18 17 15 13 11 12 8 3 5 6 6 2 0 2 4 3 6 8 4 1 2 2 2 2 3 1 1 2 1 1 2 2 2 4 3 3 3 4 6 7 8 8 9 9 7 7 7 7 11 13 15 11 5 10 17 15 11 9 11 7 3 7 9 13 15 15 16
25 25 26 26 25 25 25 25 25 25 25 25 25 25 24 24 24 23 22 21 20 20 18 15 13 11 10 5 1 4 6 4 2 1 3 7 10 12 10 5 2 3 3 3 4 6 4 4 4 2 2 2 1 2 3 1 2 5 7 8 8 9 8 7 8 7 6 7 9 11 11 15 14 6 9 12 8 6 7 11 11 4 7 9 11 12 13 14
26 26 26 26 26 26 26 26 26 25 26 25 26 26 25 25 25 24 24 24 23 22 19 16 13 11 8 3 3 6 5 3 3 4 11 15 18 16 11 7 5 5 5 4 5 8 8 8 4 2 1 1 2 4 4 2 3 7 8 10 10 8 8 7 8 7 5 5 7 8 10 14 15 12 12 12 8 6 5 8 9 6 5 10 13 13 12 11
27 27 27 27 27 27 27 27 27 26 26 26 27 27 27 27 26 26 26 26 25 21 18 15 10 9 7 4 9 12 7 6 10 16 20 20 17 14 10 9 9 8 6 4 7 9 10 9 4 2 2 1 2 3 3 3 5 7 7 9 10 8 8 8 7 6 5 5 5 3 8 12 15 16 11 9 10 9 9 10 9 6 4 7 12 13 12 11
27 27 27 28 28 28 28 28 28 27 27 28 28 29 29 28 28 28 26 25 22 17 14 11 9 9 6 4 12 17 17 16 19 21 17 13 12 10 8 9 10 10 9 8 10 11 11 9 6 5 3 1 1 3 3 5 6 7 6 5 8 7 7 7 6 8 8 5 6 5 8 13 14 15 12 9 9 7 9 11 12 9 4 6 9 10 11 11
28 28 28 28 28 28 29 28 28 28 28 29 31 31 29 28 28 25 22 21 17 12 9 8 9 9 6 7 14 16 16 15 16 15 9 9 11 9 6 5 9 11 12 13 15 15 14 10 6 2 2 3 2 3 5 4 4 5 5 4 4 5 5 4 5 9 9 6 7 7 9 13 12 10 10 10 8 7 10 11 10 9 5 6 8 9 11 11
29 29 28 28 29 29 29 29 29 29 29 30 31 30 26 26 24 18 16 13 8 3 8 9 10 8 3 10 14 10 8 9 11 10 8 7 8 6 8 7 6 9 11 14 15 15 11 6 5 1 2 2 1 2 4 3 2 2 3 4 3 4 5 5 6 7 8 7 10 10 9 11 12 11 9 7 6 8 11 12 9 8 7 5 7 9 11 11
29 30 29 29 30 30 29 30 30 30 30 30 29 26 23 21 14 9 9 6 6 9 12 11 11 7 1 6 8 7 6 6 8 9 7 4 5 8 11 11 7 6 7 9 11 12 8 2 3 2 1 0 2 1 3 4 3 1 2 5 4 5 5 5 6 8 10 6 8 14 10 8 8 9 9 9 10 9 9 11 11 10 9 6 6 7 9 11
29 30 30 30 31 31 30 31 30 29 31 29 27 23 18 11 4 4 5 8 13 12 10 8 10 6 4 7 7 7 4 6 10 11 10 11 13 15 12 7 4 2 2 3 5 6 4 2 1 1 1 1 2 3 2 3 3 2 2 4 4 5 5 4 5 7 11 9 9 13 13 12 9 8 10 11 11 10 10 10 10 10 9 7 6 7 9 10
29 30 30 31 31 31 30 30 28 28 29 27 23 19 11 4 5 8 9 12 12 9 7 5 7 3 4 5 4 4 7 12 17 18 18 17 14 14 10 5 1 2 2 3 1 3 1 1 1 1 1 1 2 4 2 3 1 3 4 3 4 5 5 5 4 5 6 8 10 11 12 13 12 12 14 14 9 7 10 10 9 10 10 8 7 8 9 10
31 31 31 31 31 31 30 29 27 26 26 22 18 10 6 5 4 6 8 9 5 2 1 1 4 1 5 7 6 9 14 18 18 17 14 9 5 6 5 3 1 1 1 2 1 3 2 1 2 2 1 2 4 5 7 6 3 6 7 5 6 6 5 6 6 7 6 5 9 10 10 11 12 13 15 18 13 8 8 8 7 9 9 8 8 9 9 11
32 31 32 31 31 31 29 28 26 24 21 19 16 7 4 5 2 2 0 3 4 7 7 6 5 4 8 11 9 11 17 14 8 7 7 4 2 2 1 1 3 1 2 3 2 1 3 3 2 4 5 7 8 8 8 7 6 7 7 6 8 7 7 7 7 9 8 5 6 7 8 10 12 13 15 16 14 10 9 9 7 8 8 7 9 10 11 12
32 32 33 32 32 31 29 28 25 20 16 14 13 5 1 3 3 4 5 6 9 10 11 11 9 10 12 13 11 8 9 6 4 6 8 6 4 2 1 2 4 1 4 4 2 2 1 4 6 7 9 10 9 8 8 6 6 6 5 6 8 7 8 8 9 12 10 5 5 6 7 10 11 13 15 14 13 14 12 10 9 8 8 7 9 12 12 11
32 33 33 32 32 30 28 27 20 14 11 9 9 4 1 3 3 6 5 5 9 8 10 10 8 11 14 17 18 7 1 3 7 7 3 3 4 4 2 3 4 4 3 3 1 3 3 5 8 9 8 8 7 6 6 6 6 6 4 5 6 7 7 8 9 11 8 4 5 7 7 8 10 12 16 15 13 13 11 11 10 10 9 9 10 11 12 10
32 33 33 32 31 29 27 23 13 9 9 8 6 3 3 7 6 6 3 3 8 5 5 5 4 6 8 11 11 5 4 4 5 7 2 6 3 4 4 3 5 4 3 4 5 5 5 6 9 10 7 5 6 5 5 5 5 4 4 5 5 6 7 6 7 8 8 4 5 8 7 6 8 9 13 15 13 11 10 10 10 10 11 11 12 12 12 12
33 33 33 33 30 27 25 17 8 9 10 5 3 5 8 10 7 5 2 1 5 5 4 5 4 4 4 3 5 8 2 4 4 6 4 7 3 3 4 5 6 4 4 8 10 10 10 7 6 7 7 7 7 5 5 4 4 4 6 6 6 8 8 7 7 8 10 7 6 7 6 5 5 8 12 9 8 11 11 10 8 8 10 11 12 13 13 13
33 33 33 32 28 26 22 10 5 12 10 2 3 9 11 12 8 3 2 2 3 5 3 3 2 4 4 1 5 6 1 3 6 6 4 5 4 2 2 3 4 5 8 9 9 10 11 6 5 5 6 7 7 6 6 6 3 4 6 9 10 10 10 9 9 6 7 6 3 3 3 6 4 9 13 4 5 10 10 10 10 8 8 9 10 11 11 12
33 33 33 30 26 26 17 3 6 15 9 1 5 11 12 12 9 1 1 3 2 4 3 1 1 2 3 2 4 3 2 3 7 8 6 5 5 2 2 2 1 5 6 6 5 4 5 5 6 7 7 7 7 6 6 7 4 3 4 8 11 12 11 12 10 4 2 4 4 2 1 5 4 8 13 6 7 11 10 10 10 8 8 9 9 9 10 11
33 33 32 29 24 21 11 3 11 13 3 2 9 12 13 13 7 1 2 4 2 3 2 2 1 1 3 2 2 3 5 6 6 5 3 3 2 1 4 4 2 3 2 2 3 2 3 6 7 8 8 7 7 6 6 8 5 3 4 7 10 12 13 14 9 4 4 5 9 7 3 4 4 7 9 7 9 9 9 11 10 8 9 9 10 10 10 12
33 33 31 27 22 16 8 8 12 8 1 5 10 13 16 13 4 2 4 3 2 1 0 2 2 1 3 2 2 4 7 6 4 4 2 1 1 1 4 7 4 4 3 3 5 2 4 5 7 6 5 5 5 6 7 8 5 5 6 9 10 10 13 12 7 5 5 4 8 7 4 4 5 6 4 6 9 10 11 12 10 8 9 9 10 10 10 11
36 34 31 25 18 11 6 8 8 5 5 8 12 16 17 8 1 3 4 2 1 1 1 1 3 2 3 5 5 4 4 2 3 3 3 0 1 1 2 4 3 5 5 6 8 5 2 4 6 5 2 4 6 8 8 8 7 6 7 9 9 9 9 8 4 3 4 4 8 8 4 3 5 5 4 4 7 10 10 9 7 8 9 9 9 9 9 9
39 36 29 20 13 8 6 8 7 5 7 10 14 17 12 2 3 5 3 0 1 3 1 1 4 7 7 8 8 3 2 3 3 3 3 1 2 3 1 2 2 4 4 5 7 8 5 2 4 5 5 6 7 7 7 9 8 5 3 4 6 7 4 1 2 0 2 4 9 9 6 4 4 5 5 5 5 6 7 6 6 7 8 9 8 8 9 8
41 34 22 13 9 7 6 6 7 9 12 15 16 12 5 2 3 4 1 2 3 4 3 3 5 9 11 9 6 4 3 4 3 1 2 2 2 2 2 1 2 2 2 3 5 6 5 4 3 5 8 9 6 6 5 6 7 4 2 2 4 3 0 2 2 1 2 4 6 8 8 6 5 5 4 4 5 5 8 9 9 9 9 9 8 8 9 8
38 28 15 8 8 7 6 6 10 14 15 16 14 6 3 3 3 2 2 4 3 3 4 5 6 9 12 9 4 3 3 4 2 1 2 2 1 2 3 3 2 1 2 2 2 3 4 7 7 6 8 9 6 4 4 4 4 4 3 3 3 2 1 1 2 2 4 5 6 5 7 5 6 7 8 8 8 5 7 9 12 13 11 10 9 9 8 7
34 21 9 6 7 9 9 11 13 14 16 15 9 3 5 4 2 2 4 3 2 3 4 6 9 11 10 8 4 3 2 3 3 1 1 2 3 3 5 7 3 0 1 1 1 2 3 4 4 3 4 8 8 5 3 3 4 5 4 3 4 3 3 4 4 2 3 6 7 5 4 3 4 5 9 12 11 8 7 8 11 14 14 12 11 10 8 8
29 15 7 5 6 9 10 11 11 11 14 13 5 4 5 3 1 4 4 3 3 4 4 6 12 11 6 3 3 2 1 3 2 1 2 2 2 3 3 6 5 2 1 0 1 1 2 4 2 3 1 4 9 9 6 4 4 5 5 4 4 3 3 4 3 2 3 4 3 3 3 3 3 4 7 10 11 9 8 7 9 11 13 13 12 11 9 9
21 9 9 10 10 11 10 8 7 8 10 8 5 5 4 1 3 3 3 3 3 4 6 9 10 8 4 3 2 2 2 3 1 2 4 2 2 3 1 3 5 4 2 1 2 1 1 4 4 3 2 5 8 8 6 3 2 3 3 4 4 3 1 1 1 4 4 2 1 2 2 4 4 6 6 5 6 7 7 7 8 9 10 11 11 11 11 10
16 9 11 15 15 14 11 7 6 8 8 5 5 3 1 3 3 2 2 3 4 6 9 10 6 4 4 2 3 2 3 4 4 3 3 2 3 3 3 3 4 7 5 3 1 1 1 4 5 4 4 5 6 4 4 4 3 2 3 4 2 3 3 2 2 5 1 3 2 1 3 5 2 5 6 2 3 6 6 6 8 9 9 10 10 10 10 10
17 7 8 16 19 16 11 5 5 8 6 5 4 1 2 3 3 2 3 6 6 5 6 6 2 1 4 4 4 4 2 3 3 3 1 1 3 3 3 2 2 7 7 4 0 2 2 3 4 2 4 3 3 2 4 6 5 1 2 5 3 6 3 2 2 4 3 4 3 0 4 3 0 3 6 7 2 5 5 4 7 8 9 10 10 10 10 11
15 5 5 15 20 15 7 5 6 6 4 5 3 2 1 1 2 2 4 7 5 3 3 4 1 1 4 5 5 6 6 4 4 5 3 1 2 3 3 1 1 3 6 5 2 3 2 2 5 2 2 4 2 2 2 6 6 4 3 6 4 2 0 1 2 2 2 4 2 1 2 3 3 3 6 8 6 8 8 7 6 6 8 9 9 10 11 12
9 3 2 12 19 12 5 5 6 5 4 4 3 3 1 2 4 5 6 6 4 2 3 3 2 2 4 5 6 7 5 4 5 6 3 1 1 3 3 1 1 5 6 7 5 2 2 0 4 2 2 3 4 2 1 4 5 5 4 4 4 1 2 3 3 2 2 2 1 0 1 1 3 4 4 6 6 7 8 8 7 7 7 7 8 9 10 10
5 2 1 11 19 10 4 6 4 5 4 1 1 2 2 3 5 6 7 5 2 2 2 3 3 3 4 6 7 4 2 4 5 5 3 1 2 3 2 3 1 6 6 5 6 2 1 1 2 4 3 1 2 0 2 3 2 4 2 2 3 1 0 3 3 1 1 2 1 2 3 2 4 2 3 6 7 6 7 7 7 8 7 7 8 8 9 9
4 3 2 14 20 8 3 5 3 3 2 0 2 3 3 5 5 6 8 4 2 3 3 4 5 4 4 6 5 2 2 5 4 3 3 2 1 2 1 3 1 5 4 3 4 2 1 1 2 3 3 0 3 2 3 4 2 2 2 2 3 2 1 2 2 1 1 1 2 3 2 4 4 1 3 5 6 7 7 7 7 8 7 8 8 8 9 10
4 2 3 18 20 5 3 4 1 2 1 1 3 4 5 6 4 5 7 4 2 3 2 2 4 4 4 4 3 3 3 4 4 3 2 3 3 3 2 1 2 3 2 1 3 3 3 2 1 2 2 3 5 3 4 7 4 1 2 2 2 1 1 1 1 2 3 2 1 3 1 4 5 2 3 4 5 6 6 7 8 7 7 8 9 9 9 10
3 2 4 19 19 4 5 4 2 3 1 4 5 4 5 4 3 4 6 4 2 2 1 2 4 3 3 3 3 4 5 3 4 4 3 4 5 4 4 5 4 2 2 1 2 3 3 2 0 2 2 3 6 6 5 5 1 1 3 1 3 2 1 1 2 3 3 2 1 3 1 4 5 3 4 5 6 5 4 6 8 7 5 6 9 9 8 9
2 3 3 15 18 7 6 3 3 3 4 6 6 4 3 3 3 5 6 5 3 2 2 4 4 3 3 4 4 6 7 4 3 4 4 3 5 4 5 6 5 2 2 2 1 2 2 1 1 2 2 4 5 5 4 2 2 1 3 2 2 3 3 2 3 1 1 3 0 3 1 4 5 4 5 5 5 4 5 6 6 6 5 5 7 8 8 8
3 1 3 9 16 10 5 2 1 2 5 7 6 6 5 3 3 5 7 7 4 2 3 5 5 5 4 5 7 7 6 4 3 3 4 4 5 5 5 6 5 2 2 3 2 1 1 0 2 3 3 2 1 1 1 1 0 0 3 3 2 4 4 3 2 3 1 4 2 3 3 5 5 5 6 6 7 8 9 9 7 6 6 5 6 6 7 7
2 2 3 6 8 8 3 2 4 2 4 6 5 5 5 5 5 6 6 5 2 4 5 5 5 5 4 7 10 9 5 5 6 4 5 5 4 3 5 8 4 0 2 5 5 3 2 0 1 3 4 4 4 4 3 1 1 1 4 3 2 3 2 1 1 1 2 2 3 2 3 4 7 9 11 12 11 10 9 10 9 8 7 6 4 6 7 7
2 1 2 3 3 4 3 2 5 4 3 3 2 4 6 7 8 6 4 3 4 7 5 4 2 5 7 11 11 7 6 5 6 5 6 6 4 4 6 5 2 2 4 4 4 2 3 1 2 4 4 3 4 5 4 2 2 2 4 2 3 2 2 2 1 4 3 2 4 5 0 2 6 10 13 13 11 9 8 9 9 7 7 6 3 7 7 7
3 1 1 1 1 2 2 4 6 6 5 3 1 3 7 8 8 7 5 5 7 7 3 2 4 8 11 13 9 6 8 7 4 3 4 5 5 6 6 1 1 3 3 3 3 2 3 1 2 4 3 4 6 7 5 3 2 3 4 3 2 1 4 3 3 5 3 2 4 5 3 2 5 8 11 12 11 9 8 8 8 7 7 3 4 8 9 9
2 1 1 1 1 1 3 5 7 6 6 5 2 4 7 8 8 7 5 5 8 6 1 3 10 13 14 13 8 7 7 6 5 5 5 6 7 6 4 2 1 2 3 2 3 1 2 0 1 1 2 4 7 7 5 5 2 1 2 3 3 2 6 5 3 4 3 3 4 4 5 4 5 5 8 10 10 7 7 9 9 9 9 5 4 8 8 9
2 1 2 1 1 2 3 3 5 4 4 4 3 4 7 8 9 10 7 4 6 6 3 6 13 16 15 13 9 8 7 6 7 9 7 7 7 3 2 1 1 3 4 2 2 2 1 1 1 1 1 1 3 3 3 5 3 0 1 3 6 3 5 4 2 3 3 3 4 5 4 4 3 4 7 9 8 8 10 12 11 9 9 7 4 5 6 8
4 3 4 2 2 3 2 2 3 3 3 3 3 5 7 6 9 13 10 5 7 7 7 9 14 15 14 14 11 11 12 12 13 14 11 10 7 3 2 2 1 4 4 1 1 1 1 1 2 2 3 1 2 3 1 3 2 0 2 6 7 3 3 3 2 3 3 3 6 6 4 4 5 6 7 8 8 11 12 11 11 9 9 8 6 4 5 6
7 5 4 3 3 2 3 4 3 2 2 2 4 7 7 8 9 10 9 4 5 8 8 8 12 11 11 14 15 14 16 17 17 15 11 9 9 7 6 6 5 4 3 1 1 1 0 0 1 2 2 1 3 4 3 3 3 0 2 3 4 2 1 2 2 3 3 2 3 4 3 4 7 7 8 9 9 10 10 9 9 9 8 8 6 5 5 6
Wind_Direction
340 339 337 336 334 333 332 331 330 328 327 327 326 326 325 325 324 325 324 323 324 323 324 325 326 327 326 326 326 326 324 323 320 317 309 295 299 133 91 54 80 67 311 307 333 345 345 358 5 0 359 10 108 144 183 175 151 153 191 225 233 230 228 226 218 221 236 304 259 225 193 190 192 205 207 106 188 214 185 200 220 222 225 111 140 145 143 148
340 338 336 335 333 332 331 330 329 327 327 326 326 325 323 323 322 323 322 322 324 322 323 322 323 326 326 326 324 327 327 321 314 303 294 94 107 105 91 77 81 167 285 303 341 15 8 342 345 356 6 17 332 313 186 186 167 189 194 242 237 234 260 298 301 318 332 297 289 259 226 212 195 192 185 187 215 206 187 214 239 232 219 86 120 135 143 151
340 338 337 335 333 332 331 329 329 328 327 326 324 323 322 321 322 322 320 320 321 321 322 321 323 325 326 325 323 329 327 320 312 286 299 89 96 78 69 58 46 222 275 297 332 355 339 311 323 357 31 11 306 260 237 227 197 194 199 243 243 261 284 293 327 332 315 312 320 298 288 277 227 200 177 200 217 208 198 207 217 230 213 132 144 144 149 156
340 339 337 335 333 332 331 329 328 327 326 325 323 322 322 320 321 321 320 319 319 320 320 321 321 322 327 323 322 331 327 320 300 222 105 88 93 74 47 32 30 334 290 298 315 321 319 321 328 22 72 7 304 331 245 229 239 198 201 236 256 295 275 287 325 329 321 329 327 311 322 310 269 253 218 200 212 217 212 203 202 223 211 158 162 158 158 161
340 339 337 335 333 331 330 329 328 327 325 324 322 320 321 320 319 318 318 317 317 318 317 319 318 321 327 321 323 331 330 335 281 196 110 89 82 54 323 1 5 335 321 306 307 308 321 352 45 56 62 10 318 353 258 242 272 263 242 252 273 283 278 293 308 319 321 323 326 321 319 303 292 287 264 212 209 219 218 201 201 221 206 166 167 163 165 167
340 339 337 335 333 332 330 329 328 326 324 324 322 319 320 319 317 317 316 315 316 315 316 317 316 320 324 321 326 333 338 294 280 283 349 298 318 290 289 318 315 313 318 308 315 330 358 35 48 35 54 31 272 249 265 269 253 257 265 271 280 277 278 292 299 310 312 306 307 302 299 308 307 293 291 249 225 236 251 195 194 231 210 160 164 162 169 174
340 338 336 334 332 331 329 328 327 325 323 323 322 320 319 318 316 315 314 315 314 313 313 313 315 319 323 323 327 344 138 268 279 289 326 206 91 354 321 280 260 275 289 323 36 27 45 44 25 123 100 8 270 243 270 290 271 252 275 293 296 288 282 285 288 297 298 290 287 288 291 292 288 288 315 292 261 266 286 304 148 240 207 153 163 168 173 178
340 338 335 334 331 329 329 327 326 324 323 322 322 321 317 316 315 313 312 312 312 312 311 310 314 318 323 329 335 335 249 261 282 320 157 175 105 17 1 315 244 260 272 254 131 136 339 360 282 180 77 330 277 287 295 315 294 256 281 313 313 303 296 291 281 277 281 284 286 289 288 279 273 273 281 276 269 271 279 298 337 182 174 161 169 175 178 182
340 338 335 335 332 330 328 327 326 324 323 322 321 319 317 316 314 312 310 309 309 307 305 307 309 315 321 327 352 318 266 241 284 34 227 236 277 337 347 345 281 261 257 240 195 168 189 236 225 164 119 273 283 302 309 330 288 274 312 314 311 304 300 294 284 269 263 274 284 285 286 286 284 270 265 262 261 266 263 278 287 143 151 168 171 181 185 187
339 338 336 335 334 331 329 327 326 324 323 321 319 317 316 315 312 310 308 305 303 299 297 296 298 308 311 303 269 285 265 236 221 254 300 293 293 305 314 313 280 247 231 217 179 168 179 212 224 176 165 245 314 294 294 279 284 325 322 305 302 293 285 277 276 272 263 263 265 271 280 286 285 262 257 263 268 279 255 261 270 220 170 169 171 188 194 196
341 340 338 337 336 333 330 329 326 324 323 321 319 317 315 314 311 309 306 302 297 292 289 282 284 290 286 274 226 254 263 240 233 286 305 301 298 297 291 278 256 232 222 223 220 207 214 228 218 116 157 259 337 304 278 250 307 322 314 309 303 291 283 265 261 264 256 256 254 260 268 272 273 254 244 263 287 306 281 277 281 260 206 174 174 188 196 206
342 341 339 338 336 333 331 329 326 325 323 322 320 317 315 312 310 310 306 301 294 288 281 272 268 262 263 258 230 240 262 269 285 298 299 298 294 289 280 261 245 237 221 218 248 239 234 235 193 144 223 307 344 304 282 301 324 312 307 310 301 296 284 259 251 248 225 232 230 251 277 259 252 254 252 257 270 278 274 276 283 271 226 188 182 185 195 203
341 340 339 338 336 332 331 329 326 325 323 322 320 318 314 311 315 316 310 301 293 283 269 252 235 233 240 244 241 257 279 288 296 299 298 300 296 291 284 253 241 245 234 230 250 254 254 242 191 189 215 121 272 270 316 325 313 299 297 298 300 306 285 247 225 230 229 226 194 191 263 254 243 255 265 259 254 263 262 259 267 266 228 199 191 186 199 199
340 339 338 337 335 332 331 329 326 325 323 321 319 317 313 316 323 320 312 304 294 274 244 217 206 208 205 249 269 282 294 296 294 295 301 311 308 316 328 277 243 242 240 243 251 261 268 248 195 189 225 182 227 301 336 325 293 298 300 289 286 287 287 265 223 218 221 211 183 192 244 252 249 253 256 258 244 234 249 251 258 265 243 204 193 187 196 197
339 337 336 335 334 332 330 329 326 325 324 321 319 315 316 324 326 321 321 318 309 215 174 169 181 183 220 272 282 297 305 294 288 305 320 310 309 329 347 332 267 245 247 250 254 264 271 235 180 172 254 220 87 348 325 322 301 287 279 285 268 259 293 286 250 221 220 209 179 194 244 255 252 252 249 265 258 225 238 247 245 255 254 218 195 190 190 194
337 336 335 334 333 332 331 329 326 325 324 321 319 318 323 330 328 334 349 15 80 123 141 152 175 172 289 276 292 313 299 281 298 330 337 310 307 309 320 318 288 250 243 250 253 261 262 195 176 186 184 224 134 168 333 335 313 285 234 270 274 274 299 289 255 228 228 237 194 201 236 257 251 256 249 250 256 239 235 243 235 235 241 218 196 192 187 190
336 335 334 333 333 332 331 329 326 326 324 321 320 324 332 337 352 50 49 94 105 116 127 146 168 168 268 268 294 311 301 302 313 317 301 294 296 294 298 296 286 236 220 267 245 241 238 178 195 190 107 146 145 100 19 290 284 321 270 264 275 272 281 290 283 243 221 227 228 218 231 246 252 270 265 250 244 240 242 242 232 229 226 206 193 191 190 187
336 335 334 333 332 332 332 330 328 328 323 321 325 331 347 29 103 93 100 115 116 117 103 116 151 148 275 266 286 298 306 311 309 302 295 297 290 277 265 238 309 29 23 342 244 192 188 187 143 110 34 55 123 116 196 243 263 312 282 273 286 275 267 267 281 285 243 226 237 234 235 244 247 255 263 261 241 220 240 241 231 230 219 201 187 187 193 188
336 335 334 334 333 332 332 330 329 328 324 329 341 355 38 68 103 100 113 121 115 141 99 151 158 165 294 283 276 290 307 305 300 292 286 295 274 245 234 211 4 64 94 6 265 198 158 62 68 129 211 201 193 185 203 224 231 264 275 281 285 281 272 270 270 286 298 279 256 244 243 247 244 242 247 254 248 220 236 250 244 240 227 202 185 187 190 191
337 336 335 334 333 331 332 330 329 329 328 336 349 15 56 26 30 16 242 200 234 237 251 244 203 243 286 287 285 306 315 307 287 268 252 249 176 140 172 118 67 98 176 177 230 251 149 180 216 192 208 212 212 207 208 223 234 250 270 278 281 281 275 277 278 279 283 288 270 252 248 246 241 242 241 244 248 238 235 245 246 242 235 208 188 186 186 194
337 336 336 335 333 332 332 330 330 333 333 337 350 19 72 354 3 330 314 274 253 232 243 248 226 239 256 265 280 316 335 319 275 260 254 241 172 125 293 126 104 193 212 182 210 318 174 208 225 213 214 216 213 210 209 223 238 248 262 269 275 276 274 276 278 280 274 257 267 269 263 254 240 239 242 237 236 239 233 231 235 232 232 216 191 188 189 193
337 336 336 335 333 332 331 331 333 338 343 357 17 58 180 332 322 300 311 299 280 236 232 250 240 251 257 262 270 273 68 292 296 291 251 167 165 184 194 134 153 213 203 159 194 281 259 238 232 224 218 220 224 216 209 217 230 242 255 264 269 271 280 280 269 272 270 248 271 280 271 261 248 238 241 233 225 233 230 221 221 215 218 216 200 192 190 182
337 336 336 336 334 332 331 334 340 349 358 12 34 59 4 350 324 298 309 297 293 265 227 242 228 247 270 273 254 197 165 229 274 291 223 130 157 188 157 172 201 210 186 179 200 224 241 239 230 224 208 207 232 231 217 227 236 231 237 252 262 264 269 275 270 276 288 279 257 272 280 267 256 247 247 237 223 226 223 217 217 210 208 207 201 196 187 176
336 336 337 336 334 332 334 340 352 3 1 1 29 26 8 356 334 313 334 288 289 290 239 217 207 220 256 284 182 157 177 214 205 269 229 141 149 173 161 194 201 212 220 206 207 221 234 230 208 203 192 196 218 225 212 219 246 231 229 239 248 257 253 253 272 292 310 300 240 245 279 269 237 238 250 241 212 220 220 215 220 221 216 209 205 200 188 177
336 336 336 336 335 333 337 345 1 360 353 343 32 3 354 351 340 324 12 13 287 286 260 219 222 221 223 171 158 173 227 242 218 244 228 164 172 175 175 187 193 224 223 213 214 231 242 225 163 175 192 194 202 221 208 190 229 248 229 230 235 249 253 251 264 293 324 305 232 183 259 268 238 229 242 223 172 216 217 215 217 216 221 217 212 206 189 178
336 335 336 336 335 335 342 1 346 348 349 73 11 349 343 344 339 321 82 23 306 286 309 273 186 222 241 161 164 218 250 252 243 240 239 220 199 196 230 197 194 236 215 207 221 240 244 194 174 203 215 204 205 226 208 176 202 252 218 223 230 236 243 248 252 263 285 268 282 330 247 272 289 240 234 194 179 213 212 217 215 203 213 213 210 207 190 180
336 335 336 335 335 338 340 310 325 338 355 2 348 341 339 340 339 58 74 30 341 291 305 276 174 170 256 185 142 286 283 285 289 267 229 233 219 208 239 224 223 247 168 143 248 225 175 183 197 214 221 216 215 230 204 169 191 239 216 228 237 232 231 238 237 227 249 275 296 295 210 229 276 254 233 179 178 211 210 216 215 199 205 208 210 205 192 185
336 335 336 335 334 332 312 289 312 326 318 329 337 335 334 336 334 94 73 52 341 308 194 268 277 210 244 288 360 288 277 286 298 295 301 241 229 138 230 233 224 227 168 174 247 223 146 191 205 202 221 226 219 231 205 174 193 239 234 236 241 235 229 229 220 223 251 273 287 277 187 208 263 269 253 160 176 208 209 210 208 200 200 202 214 207 195 192
337 336 338 336 331 328 312 285 291 317 327 326 332 330 330 333 38 69 69 84 332 328 143 258 317 311 297 322 316 261 267 270 204 270 323 250 252 67 227 232 220 233 206 201 240 250 200 197 175 160 206 239 236 237 208 184 205 235 241 243 251 251 236 221 194 221 259 248 259 259 198 222 276 273 249 163 183 208 205 205 195 197 201 197 208 206 198 196
339 340 341 336 325 327 323 295 294 335 337 326 327 327 330 355 92 52 37 357 318 297 282 24 339 322 328 333 321 293 268 267 254 304 332 330 358 17 274 226 211 235 235 230 246 255 260 226 143 159 195 219 234 236 206 192 208 235 264 257 262 261 243 188 126 93 289 254 252 246 211 220 279 272 231 194 206 194 175 182 176 189 207 202 202 199 196 193
341 343 342 329 315 312 305 305 326 336 328 326 329 333 353 50 71 73 54 283 300 290 302 352 337 324 331 336 320 311 307 286 292 339 315 316 7 19 330 267 207 220 268 267 261 265 262 240 207 194 194 201 225 246 229 204 202 212 249 253 260 261 79 69 93 124 237 246 251 231 202 208 249 267 254 239 242 184 156 168 170 178 202 206 203 198 194 190
343 343 340 320 304 293 285 304 321 322 321 327 336 355 74 40 28 111 253 303 317 311 312 321 332 329 325 325 300 278 298 289 271 193 225 279 272 238 232 212 189 247 252 230 270 293 258 231 230 220 199 195 206 240 241 222 195 183 208 239 243 218 120 168 182 184 227 244 258 222 185 206 242 252 256 261 264 224 176 174 168 169 186 200 207 203 192 185
344 344 339 317 306 305 309 312 312 314 319 328 344 43 87 61 20 268 291 312 322 334 320 308 319 318 312 314 295 264 261 255 251 197 200 236 263 263 230 214 195 65 241 200 311 313 300 275 241 213 207 192 189 200 205 196 183 182 190 194 204 197 175 194 197 210 232 239 251 226 184 234 272 259 238 237 246 229 194 184 172 167 174 186 199 204 194 186
346 346 349 345 336 335 331 321 315 315 325 338 12 66 59 63 269 291 309 288 282 318 317 305 313 309 293 273 270 285 280 248 224 215 275 264 270 284 245 222 205 165 73 351 301 251 290 309 248 174 184 188 194 202 202 192 188 203 192 165 194 218 199 188 172 196 226 230 233 192 171 197 211 251 227 213 228 222 189 185 174 167 174 179 187 195 193 193
352 14 34 29 17 0 343 330 331 333 341 2 54 67 58 121 256 299 300 270 284 308 303 302 305 303 290 252 273 306 226 242 296 293 278 268 255 266 249 226 203 168 117 190 233 187 214 275 260 236 233 196 204 209 197 195 237 232 172 150 192 207 178 120 197 236 227 172 139 148 209 221 204 262 260 205 219 224 195 181 166 167 176 175 183 191 191 194
2 51 46 26 14 360 346 336 347 350 358 41 66 52 104 200 243 276 275 282 300 307 308 307 295 283 297 291 310 315 211 233 306 311 268 234 243 235 218 234 195 178 174 167 219 194 185 277 276 289 286 209 203 207 177 179 217 235 169 167 138 87 67 37 263 266 212 136 204 165 222 263 307 298 299 88 169 227 217 188 177 178 172 169 184 191 188 191
357 34 34 14 6 355 349 347 349 352 13 78 71 9 207 224 233 223 287 295 291 295 306 314 308 260 302 309 304 310 280 252 286 307 306 253 249 216 208 268 189 189 194 159 268 228 167 289 273 283 309 258 204 188 203 204 190 156 199 185 109 62 37 12 289 308 60 140 245 223 183 226 93 289 328 29 29 275 270 234 212 196 168 168 185 185 184 188
340 356 23 11 359 348 353 1 347 355 42 81 29 329 212 248 258 259 299 300 294 297 301 301 280 244 305 320 307 312 322 311 315 317 309 332 270 206 187 281 29 242 225 179 221 258 137 318 285 230 261 288 310 110 228 239 201 198 239 189 150 77 172 206 243 285 92 146 252 346 182 208 183 234 334 360 335 314 315 302 272 229 187 181 189 180 179 187
338 359 21 6 357 348 351 348 346 21 63 72 4 319 252 271 281 284 295 299 292 290 294 272 234 271 297 296 293 307 317 298 314 316 294 112 282 217 163 87 261 290 264 185 180 236 139 302 292 277 260 294 335 70 172 267 207 208 260 195 158 96 150 197 216 191 121 136 215 14 151 231 245 251 314 321 307 316 316 307 295 263 226 205 198 185 178 183
7 45 246 356 358 347 325 334 1 47 54 70 269 273 288 293 283 287 297 306 287 242 260 270 277 299 290 280 285 295 299 280 296 309 283 180 278 252 97 83 239 305 304 185 175 172 131 172 264 297 321 18 321 181 189 272 203 173 231 194 171 148 267 271 268 208 119 121 164 140 144 239 268 249 281 303 309 312 300 288 281 267 250 230 215 197 184 183
15 53 284 353 355 337 332 358 24 48 31 289 281 271 299 305 287 297 307 305 259 233 234 268 280 288 283 289 296 289 295 295 287 285 263 222 251 267 91 97 234 308 323 172 188 191 149 172 211 296 336 329 245 222 199 274 292 147 185 198 174 169 232 268 275 312 33 113 169 122 125 265 270 242 270 291 305 308 296 281 273 262 246 239 228 208 194 186
34 59 318 358 357 343 60 42 33 38 27 309 320 280 284 301 291 309 321 323 264 248 236 264 267 266 271 278 292 289 291 293 281 276 268 255 250 237 235 260 250 249 238 190 234 211 154 132 190 266 274 262 277 288 250 252 265 314 261 220 125 123 181 161 180 321 338 321 208 105 91 261 251 272 304 286 291 299 288 283 290 277 245 233 227 217 206 194
48 280 319 5 4 15 86 48 337 17 350 288 306 279 265 286 288 304 318 332 326 289 297 292 266 257 269 273 293 304 305 290 263 261 283 293 276 245 244 271 276 224 214 254 253 212 156 126 319 295 288 309 324 333 303 252 195 30 297 300 92 124 142 148 210 262 306 313 12 72 32 267 260 306 328 293 282 292 286 299 312 302 269 239 226 216 208 201
346 260 283 9 16 47 91 44 329 340 327 312 315 300 274 264 289 314 314 311 314 321 319 297 274 258 284 303 296 295 302 291 252 266 282 290 286 266 257 277 288 235 206 226 198 210 228 168 81 14 14 4 347 348 353 346 73 82 278 287 114 114 61 341 266 314 333 276 18 96 180 259 258 284 305 296 303 334 342 335 329 315 301 268 237 218 200 189
335 280 252 359 24 49 99 107 32 329 327 333 321 308 313 297 289 313 305 283 264 313 318 288 280 275 284 315 307 293 288 255 237 291 290 279 289 282 286 302 297 227 240 337 30 106 211 165 110 115 123 107 291 232 143 341 27 206 269 266 148 94 47 336 298 46 10 281 326 121 204 265 281 297 317 332 354 1 355 353 346 332 320 290 244 210 189 174
9 28 310 335 18 44 92 106 56 18 329 343 321 306 338 337 310 309 302 282 291 358 322 277 285 294 300 328 319 305 293 236 231 272 291 288 289 286 316 327 328 57 18 360 14 70 102 93 169 162 160 164 195 220 223 225 116 216 282 289 114 93 57 82 54 50 212 296 327 221 210 298 320 342 349 348 358 360 352 352 348 338 329 306 248 182 170 168
54 51 2 336 343 19 38 37 29 11 336 344 316 313 345 338 324 324 317 308 340 341 307 253 296 335 327 331 324 306 304 280 244 259 287 287 279 297 322 328 349 29 26 9 359 68 101 355 220 188 204 204 207 236 247 229 149 209 272 308 103 94 354 77 148 242 210 50 318 274 206 333 315 344 350 340 344 351 352 353 345 334 322 301 219 155 149 155
48 144 158 37 328 356 358 339 349 346 327 316 254 331 343 341 339 339 324 319 330 334 327 291 319 331 326 327 323 300 307 309 272 264 298 300 305 323 332 351 98 32 35 12 346 71 109 285 209 185 238 242 231 246 245 220 209 213 262 298 89 49 322 308 239 248 216 155 262 286 338 295 288 337 342 328 328 339 353 357 349 342 334 313 158 144 144 151
52 101 279 34 91 255 267 296 323 333 327 325 344 354 341 333 336 329 304 312 320 318 337 305 310 321 323 318 309 295 305 313 297 302 323 315 311 317 319 318 4 27 52 17 327 62 107 284 204 173 284 244 234 247 233 217 231 164 265 310 54 37 297 286 272 287 267 217 248 312 337 289 263 317 329 318 316 333 4 5 1 5 359 1 129 144 150 155
54 25 311 308 266 270 255 287 321 329 326 336 347 349 339 329 331 328 308 279 289 294 291 299 309 318 315 308 301 288 288 294 288 288 295 298 299 300 281 257 282 348 15 31 345 354 27 350 357 40 48 231 251 264 225 218 237 73 45 22 49 31 313 320 353 337 334 314 317 346 353 304 283 319 330 323 325 355 14 6 3 13 10 13 69 120 138 147
11 325 316 308 299 317 311 308 334 325 320 350 349 340 339 330 331 329 312 248 231 265 293 310 314 317 312 307 306 301 306 310 295 282 273 269 267 256 245 237 298 346 350 36 80 351 342 344 358 43 79 97 307 333 309 211 210 55 12 15 24 19 347 356 344 334 356 343 336 354 7 329 320 332 336 333 347 9 11 359 357 8 14 23 38 64 101 125
3 333 324 317 295 324 333 322 338 332 306 330 331 330 323 308 316 325 315 286 243 256 271 302 310 311 310 309 311 314 316 309 293 283 272 258 253 246 246 259 273 291 301 307 56 55 108 70 2 25 80 169 311 339 20 80 80 46 305 359 7 351 347 330 301 328 6 10 347 352 342 310 316 331 340 340 351 5 3 351 353 359 7 23 36 47 74 104
Height
835 833 832 830 829 827 826 824 823 821 820 819 817 816 814 813 811 810 809 807 806 805 803 802 800 799 797 796 793 791 788 784 779 776 776 770 767 769 770 770 770 770 770 770 771 770 770 769 769 769 768 768 769 768 769 769 769 773 775 775 769 762 758 749 746 745 743 739 736 734 731 732 734 731 726 727 731 733 736 734 730 727 724 726 727 727 730 734
835 833 831 830 828 827 825 824 822 820 819 817 816 815 813 812 810 809 808 806 805 804 802 801 800 798 797 795 793 790 787 784 780 776 772 768 768 769 769 770 770 770 770 770 771 770 771 771 770 770 769 769 770 768 769 767 768 771 773 774 765 758 754 746 746 744 742 742 738 735 732 731 730 729 726 730 734 732 738 737 731 729 727 728 728 729 731 733
834 832 831 829 827 826 824 823 821 819 818 816 815 813 812 810 809 808 807 805 804 803 801 800 799 797 796 795 792 790 787 783 778 773 769 768 769 769 769 770 770 770 770 770 770 771 771 771 770 771 771 771 770 769 769 768 768 768 770 772 762 755 753 747 748 746 744 744 742 738 735 733 729 726 726 728 731 731 736 735 732 730 728 731 730 729 731 732
833 832 830 828 826 825 823 821 820 818 817 815 813 812 810 809 808 806 805 804 803 802 800 799 798 797 795 794 792 790 788 782 773 769 768 769 768 769 769 769 770 770 770 770 770 770 770 770 770 771 771 772 772 771 771 768 767 767 767 766 758 756 756 751 749 748 745 745 745 742 738 736 731 727 725 726 730 732 729 726 726 724 723 729 730 729 730 732
833 831 829 827 825 824 822 820 819 817 815 814 812 811 809 808 806 805 804 803 802 801 799 798 797 796 795 794 791 791 788 777 768 768 768 769 768 768 769 769 769 769 769 769 769 770 770 770 770 770 772 773 773 771 771 768 766 767 763 760 758 758 759 753 750 750 748 746 747 746 742 737 732 729 725 725 728 725 719 719 718 715 716 722 725 727 728 730
832 830 828 826 824 823 821 819 817 816 814 812 811 809 808 806 805 804 803 801 801 799 798 797 796 795 794 793 791 791 789 775 767 769 768 768 768 767 768 768 768 768 768 769 769 769 770 770 771 771 773 773 773 772 771 767 766 768 762 758 759 759 759 755 751 751 750 749 749 747 743 739 737 734 727 725 724 716 712 715 715 712 712 716 720 724 727 728
831 829 827 825 823 821 820 818 816 814 812 811 809 807 806 805 803 802 801 800 799 798 797 796 795 795 793 793 791 791 792 779 767 768 767 767 767 767 767 767 767 767 767 768 769 770 770 770 771 771 773 774 773 772 771 768 767 768 764 760 759 758 758 755 752 751 750 750 747 744 742 741 741 739 731 725 721 716 714 713 716 714 712 716 719 723 725 726
831 828 826 824 822 820 818 816 814 813 811 809 808 806 805 803 802 800 799 798 797 797 796 795 795 794 793 792 791 791 790 777 765 766 767 766 766 766 767 766 766 767 767 768 768 770 770 770 771 771 774 774 773 772 771 769 767 766 765 762 760 758 757 754 751 751 750 749 745 742 741 739 738 738 732 724 718 716 715 713 715 715 714 716 719 721 722 724
830 827 825 823 821 819 817 815 813 811 809 808 806 804 803 801 800 798 798 797 795 795 794 794 794 793 793 792 793 791 779 767 765 766 766 765 766 765 766 766 766 766 766 767 767 769 770 770 770 770 773 773 772 772 770 771 769 764 765 763 762 760 757 754 751 750 749 747 745 744 742 736 732 734 729 717 715 715 714 713 713 715 717 718 720 720 721 722
829 826 824 822 820 818 815 813 811 809 808 806 804 803 801 799 798 796 795 794 794 793 792 793 792 792 793 791 795 790 770 763 766 765 765 766 765 765 765 766 765 766 766 766 767 768 768 768 768 768 770 771 771 772 770 772 769 765 765 762 761 760 756 753 750 748 748 745 744 746 745 737 730 733 727 713 712 714 713 713 711 714 717 718 720 721 720 720
828 826 824 821 819 817 814 812 810 808 806 804 802 800 799 797 795 794 793 792 790 790 790 791 791 792 792 790 795 787 766 763 765 764 765 764 764 764 764 764 765 765 765 765 766 766 767 767 767 768 770 769 770 770 768 768 767 765 764 762 759 757 753 751 749 748 747 745 741 743 744 737 729 727 723 715 713 714 714 714 711 713 715 716 718 718 720 719
827 825 823 821 818 816 813 811 809 806 804 802 800 798 796 794 792 791 789 788 786 786 787 788 790 790 790 791 788 775 763 763 764 763 763 762 762 762 762 763 763 764 764 765 764 764 765 765 766 768 768 768 770 770 766 765 765 764 764 763 758 754 752 749 747 745 745 743 738 741 744 737 728 720 717 717 714 713 715 714 712 712 713 715 716 717 718 717
827 825 822 820 818 815 812 810 807 805 802 800 798 796 793 790 790 788 785 784 781 782 784 785 788 788 791 787 772 763 762 763 763 761 760 760 760 760 760 761 761 763 763 763 763 763 764 765 766 767 766 768 770 769 765 763 764 763 762 763 760 758 753 745 743 742 742 740 734 742 748 735 724 718 716 716 713 714 715 713 711 711 712 714 715 717 717 716
826 824 822 819 817 814 811 809 806 803 801 798 796 793 790 788 787 784 782 780 778 779 781 784 785 786 789 779 762 761 763 761 761 760 759 759 758 758 759 759 760 761 762 762 762 762 763 764 766 766 766 767 767 766 766 766 765 764 763 762 762 762 754 742 740 739 740 737 730 741 747 730 721 719 716 713 712 714 714 712 711 709 711 712 713 716 717 716
825 823 821 818 815 813 810 807 804 802 799 796 793 790 787 786 784 781 780 777 776 777 779 783 784 786 788 775 761 761 761 760 761 758 758 759 758 758 758 759 759 760 761 761 761 762 763 764 765 766 765 765 765 768 770 771 767 765 767 765 761 760 754 743 738 736 737 733 728 737 740 728 722 719 714 712 712 713 713 711 710 709 710 711 711 713 714 715
824 822 819 817 814 812 809 806 803 800 797 794 791 787 785 784 782 781 779 777 777 778 780 783 783 785 787 773 761 760 760 760 759 758 759 758 758 758 758 758 758 759 760 760 760 762 763 764 764 764 764 765 767 770 774 776 773 768 769 769 764 761 758 748 738 732 733 732 728 731 731 726 721 715 712 712 710 712 712 710 708 707 707 709 711 711 712 714
823 820 818 815 813 810 807 805 802 798 795 792 789 785 783 782 781 781 780 780 779 779 781 782 783 786 780 766 761 760 759 759 758 758 758 757 758 757 757 758 757 758 759 759 760 761 762 763 763 764 765 767 768 771 777 781 779 774 771 769 766 761 758 753 741 730 729 732 730 727 726 723 718 713 711 709 709 711 711 709 707 705 705 707 709 710 711 712
821 819 816 814 811 809 806 803 800 797 794 790 787 784 783 782 782 781 781 781 781 782 782 782 785 783 770 761 762 760 759 759 757 756 756 755 756 755 756 757 757 758 758 759 759 760 761 762 764 766 768 770 769 772 778 778 775 774 772 770 765 760 757 754 746 734 729 731 730 727 725 722 718 714 710 706 706 709 708 706 706 703 703 704 706 708 709 710
820 818 815 812 810 807 804 802 799 796 793 788 786 784 783 782 782 782 782 782 783 782 780 781 782 775 764 760 761 760 759 758 756 754 753 753 754 754 755 756 757 758 760 761 760 759 761 763 767 770 770 771 768 769 772 770 768 769 769 768 767 763 758 752 746 737 733 735 731 727 726 721 717 714 709 705 704 706 706 705 705 704 702 702 703 705 707 709
819 816 814 811 808 805 803 800 798 795 792 789 786 785 785 786 785 783 783 781 780 778 775 775 776 773 767 762 759 760 758 755 754 753 752 753 753 754 755 757 758 760 761 762 760 759 761 764 768 769 767 764 764 765 765 765 766 766 767 767 764 763 758 750 745 737 733 736 731 724 723 718 714 710 705 702 702 704 705 703 704 703 702 702 702 703 705 706
818 815 812 809 806 804 801 799 796 794 793 791 788 787 789 791 790 788 784 778 773 773 772 770 772 771 766 761 760 761 761 757 753 751 751 751 752 754 755 757 760 762 761 761 761 760 761 765 766 763 760 758 760 762 763 764 765 766 768 767 764 761 755 746 743 736 731 735 730 722 722 718 711 706 700 699 701 700 700 701 701 701 702 701 700 701 702 702
817 814 811 808 805 802 800 797 795 794 793 791 790 790 792 792 792 791 789 782 772 768 770 768 769 768 762 759 760 761 765 762 753 748 748 750 752 754 754 756 760 759 759 761 764 766 767 767 762 757 757 758 760 761 763 764 764 766 767 768 766 759 752 745 739 734 729 732 729 722 722 717 708 702 696 694 695 694 694 696 696 697 699 700 699 698 699 702
816 812 809 807 804 800 798 796 795 794 793 792 791 792 792 791 791 790 790 789 778 767 766 767 767 765 761 758 757 760 764 763 756 748 746 749 751 752 753 755 757 757 759 761 764 768 769 762 755 754 756 759 761 762 764 764 765 766 766 768 766 757 753 749 740 733 729 729 727 721 721 716 706 700 694 689 688 688 689 691 692 693 694 695 695 694 696 701
814 811 808 805 802 799 796 795 794 794 793 793 792 792 792 791 791 790 789 790 784 771 765 764 764 763 760 756 756 759 760 758 755 748 744 747 749 750 751 751 754 757 758 758 759 761 757 751 749 752 756 758 759 760 763 766 767 765 763 764 762 754 751 748 740 734 730 726 721 719 722 713 703 699 692 686 687 687 686 687 690 691 691 691 691 691 691 695
813 810 807 804 801 797 795 794 794 794 793 793 793 792 792 791 790 789 790 792 783 769 763 761 762 760 756 755 756 757 757 755 750 746 744 745 746 747 747 747 751 754 753 754 757 756 750 747 748 751 755 757 758 758 759 762 765 764 759 756 755 751 747 744 739 739 741 733 717 716 723 711 697 695 689 686 688 687 684 685 687 689 690 690 690 690 690 692
812 809 805 803 800 796 794 794 794 794 793 793 793 792 792 791 790 788 792 795 782 764 760 761 760 757 754 756 756 754 757 753 745 743 743 743 743 744 745 745 747 748 748 751 754 752 747 745 745 748 752 754 756 756 754 755 762 763 753 746 748 747 745 741 739 742 747 737 717 716 728 719 702 691 685 685 687 685 685 684 684 686 688 689 689 689 690 691
810 807 804 802 799 797 796 795 795 794 793 793 793 792 791 790 790 788 789 789 777 764 762 761 759 757 754 755 754 755 759 752 743 742 742 742 741 742 744 745 746 746 746 751 754 748 743 744 745 745 748 752 755 754 750 750 759 758 744 741 743 743 742 738 737 742 742 735 724 718 723 724 711 691 681 684 686 685 686 684 683 684 685 687 687 687 689 689
808 805 802 800 798 797 796 795 795 794 793 793 792 791 791 789 789 790 787 780 771 765 763 761 757 755 754 753 753 755 755 751 748 744 741 742 742 742 745 744 745 747 745 751 754 743 738 742 744 747 750 752 750 747 744 746 752 748 737 738 739 738 737 732 734 738 735 738 736 721 716 721 711 688 679 684 686 686 684 682 682 682 683 685 685 686 687 688
806 803 800 798 796 795 795 795 794 793 793 792 791 790 789 788 788 789 786 779 771 765 762 759 756 755 755 754 753 753 751 750 749 744 741 742 742 743 746 744 744 747 745 746 747 741 738 738 741 749 755 753 746 740 739 742 744 738 734 737 735 734 732 728 733 736 736 743 739 722 716 718 707 685 678 684 686 684 681 680 682 681 680 682 683 685 686 687
804 801 799 796 795 794 794 794 792 792 791 790 791 789 788 789 787 787 785 777 772 767 761 760 759 757 758 759 756 753 752 751 747 743 743 743 743 743 745 745 745 746 746 745 744 741 738 737 740 746 747 745 741 736 735 737 736 733 735 737 735 734 731 730 736 741 747 747 732 719 713 714 709 688 676 681 680 676 677 679 682 680 679 680 681 683 684 686
801 799 797 795 794 794 794 793 791 791 790 790 789 787 788 788 785 789 786 775 772 769 763 763 763 760 760 765 764 755 752 751 747 746 746 744 746 749 749 748 747 748 749 748 746 743 741 741 739 736 734 735 735 734 733 731 732 734 736 736 738 738 734 737 742 748 757 746 720 711 709 711 712 691 673 674 671 667 670 674 678 679 677 677 679 681 683 684
799 796 795 794 793 793 793 792 791 790 789 789 788 788 788 784 785 794 788 776 775 773 768 768 766 763 763 766 765 758 754 752 747 747 747 745 748 750 750 749 748 750 751 749 748 744 739 737 733 729 728 729 733 737 735 730 731 736 737 740 747 746 743 746 746 745 749 734 712 706 707 708 706 688 674 672 668 666 666 665 670 675 675 676 676 678 680 683
797 794 793 793 792 792 792 791 790 790 788 787 788 788 785 783 788 793 787 781 779 773 770 769 765 765 767 764 760 757 755 750 745 747 747 748 750 747 745 744 743 747 749 749 749 744 737 730 729 731 727 724 729 735 735 730 730 734 736 740 747 746 747 748 742 737 734 721 707 703 705 705 695 679 669 665 662 662 664 663 664 668 671 673 673 674 677 681
795 793 792 792 793 792 791 791 790 789 788 787 786 784 784 790 792 788 784 783 778 772 772 771 767 766 765 762 760 757 755 748 743 747 748 748 751 748 744 742 742 745 749 751 748 747 746 736 727 728 726 722 723 725 725 722 724 728 726 729 734 732 732 732 730 729 721 708 704 704 702 698 687 670 658 654 653 653 658 662 663 665 667 669 671 672 675 679
794 793 792 792 793 792 791 791 790 789 788 787 786 785 791 800 797 789 786 782 777 776 775 771 769 767 762 760 759 757 756 750 744 746 747 747 748 746 743 741 741 744 748 751 747 747 751 741 725 721 721 721 721 718 718 721 725 723 717 723 726 721 719 722 723 721 710 698 700 704 696 684 674 660 652 654 654 650 652 658 662 666 667 669 671 672 674 677
794 793 793 793 793 793 791 791 790 789 789 788 789 793 798 798 792 787 784 781 779 780 777 771 768 768 762 758 758 757 756 753 748 747 746 745 744 743 741 737 737 740 742 746 748 748 748 738 724 719 718 717 717 717 718 722 724 721 720 722 719 715 719 727 727 718 707 699 698 699 690 678 671 660 650 653 655 651 650 653 657 662 666 670 672 672 674 676
794 794 794 794 793 792 792 792 791 790 790 791 794 797 796 791 787 785 782 780 779 779 780 776 769 768 766 761 758 756 755 753 749 747 746 743 740 739 739 735 734 736 736 739 745 745 744 737 725 721 721 717 715 716 717 717 718 720 722 717 713 718 725 734 735 718 703 698 696 695 686 678 678 670 657 656 657 654 654 653 653 657 662 667 670 671 673 673
796 795 795 795 795 793 793 792 791 791 791 793 798 799 794 790 786 783 782 780 778 778 781 779 771 767 767 765 759 754 755 754 748 746 747 745 739 734 734 734 733 735 734 735 740 742 743 739 726 722 726 721 716 717 717 714 713 715 714 706 710 724 730 735 736 718 701 697 695 695 687 679 680 675 670 672 670 667 666 662 656 655 657 660 663 668 671 671
797 796 796 797 796 794 794 793 792 792 791 795 802 800 795 792 786 783 782 780 778 780 781 777 773 769 767 767 762 755 756 755 750 747 747 747 741 730 729 732 735 736 732 732 738 740 743 743 730 722 725 722 717 718 719 716 712 712 712 705 705 716 722 724 719 707 701 699 695 692 686 682 683 680 679 682 679 677 675 670 663 658 656 654 654 659 665 668
799 798 798 798 796 795 794 793 793 795 797 801 804 801 798 795 788 782 781 779 778 779 779 775 773 772 769 765 762 760 758 755 753 750 746 746 741 731 730 735 738 737 730 729 734 734 738 745 736 725 723 720 718 719 721 720 714 712 715 712 707 712 717 715 706 698 697 699 698 694 689 688 685 679 679 680 677 677 676 673 670 664 659 656 653 653 657 662
801 800 799 797 796 795 794 794 798 803 806 808 807 803 800 794 788 783 779 777 777 775 775 774 773 774 771 765 763 764 761 755 752 749 745 745 742 735 734 736 738 738 733 731 733 730 733 741 739 732 726 719 718 720 720 719 714 711 713 711 709 712 715 713 705 697 694 695 697 695 694 693 682 674 676 677 674 674 673 672 671 666 661 657 655 654 654 656
804 802 801 799 796 794 795 799 806 811 810 807 807 806 801 794 790 785 778 777 778 774 773 773 772 773 771 768 767 765 763 758 751 749 744 741 740 736 732 733 735 735 734 733 731 725 728 736 739 736 729 721 719 718 718 718 714 711 708 705 706 710 713 714 710 704 701 697 693 692 694 689 678 674 675 674 672 671 670 669 668 665 662 657 654 654 654 654
810 807 801 799 797 795 796 802 811 816 813 809 807 805 801 796 791 786 782 781 780 776 775 773 770 769 768 768 769 766 764 758 749 747 745 740 736 731 729 731 731 733 735 732 727 722 724 733 736 731 725 722 718 715 713 712 712 713 708 702 704 708 710 712 711 707 704 697 690 692 694 686 678 676 674 671 671 669 667 666 664 662 661 657 653 652 653 654
816 813 806 802 798 795 802 812 818 821 817 814 811 805 800 796 792 789 787 786 782 778 778 774 770 768 766 766 768 767 765 760 749 744 743 741 734 727 727 730 728 730 731 725 722 721 723 732 736 729 725 726 726 723 717 711 712 716 712 704 702 704 705 707 704 702 701 697 693 694 692 684 678 677 675 672 670 666 665 663 660 659 659 657 654 651 652 654
814 810 808 807 801 799 810 821 825 825 822 820 815 806 800 797 792 791 791 786 781 780 781 777 770 769 768 766 766 765 763 761 753 745 741 740 733 725 726 728 726 726 723 720 719 720 724 733 734 727 723 725 729 728 722 718 718 717 712 706 702 703 705 705 704 702 700 697 693 692 690 683 678 678 676 671 668 665 663 660 657 656 656 655 653 651 651 654
815 812 811 812 808 808 816 822 824 826 825 824 818 806 804 803 796 792 790 785 780 781 782 777 770 768 769 768 768 765 759 756 753 747 744 742 735 727 725 727 726 723 720 722 723 723 731 738 735 728 722 721 723 722 719 719 718 714 709 705 702 703 705 706 706 703 699 696 691 687 690 690 683 679 676 670 667 665 663 659 657 655 653 652 651 650 650 652
820 822 825 823 815 814 818 821 823 826 826 825 819 810 809 811 804 796 790 785 783 783 782 775 770 770 771 772 771 765 757 754 752 748 747 742 734 729 726 727 728 724 721 725 726 725 731 734 732 729 722 718 720 718 716 716 713 711 708 703 701 702 703 705 705 700 698 698 691 686 694 697 687 682 680 673 669 667 664 662 659 656 654 651 649 648 650 652
823 828 832 830 826 825 825 823 825 827 826 824 819 814 813 815 812 806 798 790 786 785 782 776 772 772 773 774 774 766 757 753 749 746 745 740 734 733 730 728 728 726 725 728 728 727 728 727 730 730 722 718 718 716 716 715 711 710 706 702 702 702 702 703 703 700 700 698 692 692 698 698 689 685 683 677 673 670 666 663 660 657 655 651 648 648 649 651
828 830 831 830 831 834 832 828 827 828 826 821 818 817 818 817 815 811 806 800 794 788 785 782 776 772 773 773 773 768 760 755 751 747 745 742 739 738 735 731 729 727 727 731 731 730 727 724 728 730 724 719 717 716 717 714 709 708 707 707 707 702 701 703 703 703 702 697 697 699 699 694 689 687 684 678 674 670 666 664 661 657 655 651 649 648 649 651
832 833 832 831 831 831 831 829 829 830 827 823 820 819 819 819 816 811 807 805 802 791 784 784 779 774 773 771 769 766 759 757 757 751 747 747 743 738 736 734 732 729 729 732 734 732 728 726 730 731 723 716 714 714 714 712 711 709 707 710 710 701 699 703 704 705 704 701 701 699 695 691 687 685 684 679 673 669 666 665 662 659 657 654 651 651 652 653
833 833 833 833 832 830 829 828 830 831 828 825 823 821 820 820 818 814 806 799 798 793 784 783 782 777 772 768 763 758 752 751 753 748 744 745 741 736 734 732 732 732 731 733 735 735 732 731 733 730 719 712 713 713 711 712 714 708 702 707 712 706 703 706 706 704 703 702 699 695 693 692 687 683 683 680 675 672 669 668 665 661 659 657 656 656 655 655
834 833 832 833 833 830 829 829 830 830 826 824 824 823 822 820 817 817 810 796 791 789 785 784 786 781 775 766 757 751 748 746 744 739 737 738 736 734 731 729 730 732 733 735 735 736 736 732 732 732 719 709 714 715 710 709 711 707 704 708 714 713 710 708 706 704 702 700 698 695 693 691 687 683 683 680 678 676 674 672 668 664 661 660 659 659 658 657